Time,TemperatureF,DewpointF,PressureIn,WindDirection,WindDirectionDegrees,WindSpeedMPH,WindSpeedGustMPH,Humidity,HourlyPrecipIn,Conditions,Clouds,dailyrainin,SoftwareType,DateUTC
2013-11-10 00:00:00,69.7,63.9,30.11,North,0,0.0,0.0,82,0.00,,,0.00,Weather View 32 v70,2013-11-10 05:00:00,
2013-11-10 00:01:00,69.7,63.9,30.11,North,0,0.0,0.0,82,0.00,,,0.00,Weather View 32 v70,2013-11-10 05:01:00,
2013-11-10 00:06:00,69.7,64.3,30.11,North,0,0.0,0.0,83,0.00,,,0.00,Weather View 32 v70,2013-11-10 05:06:00,
2013-11-10 00:11:00,69.6,64.2,30.11,North,0,0.0,0.0,83,0.00,,,0.00,Weather View 32 v70,2013-11-10 05:11:00,
2013-11-10 00:16:00,69.6,64.2,30.11,North,0,0.0,0.0,83,0.00,,,0.00,Weather View 32 v70,2013-11-10 05:16:00,
2013-11-10 00:21:00,69.6,64.2,30.11,North,0,0.0,0.0,83,0.00,,,0.00,Weather View 32 v70,2013-11-10 05:21:00,
2013-11-10 00:26:00,69.5,64.1,30.11,North,0,0.0,0.0,83,0.00,,,0.00,Weather View 32 v70,2013-11-10 05:26:00,
2013-11-10 00:30:00,69.5,64.1,30.11,North,0,0.0,0.0,83,0.00,,,0.00,Weather View 32 v70,2013-11-10 05:30:00,
2013-11-10 00:31:00,69.5,64.1,30.11,North,0,0.0,0.0,83,0.00,,,0.00,Weather View 32 v70,2013-11-10 05:31:00,
2013-11-10 00:36:00,69.5,64.1,30.10,North,0,0.0,0.0,83,0.00,,,0.00,Weather View 32 v70,2013-11-10 05:36:00,
2013-11-10 00:41:00,69.5,64.1,30.10,North,0,0.0,0.0,83,0.00,,,0.00,Weather View 32 v70,2013-11-10 05:41:00,
2013-11-10 00:46:00,69.5,64.1,30.10,North,0,0.0,0.0,83,0.00,,,0.00,Weather View 32 v70,2013-11-10 05:46:00,
2013-11-10 00:51:00,69.5,64.1,30.10,North,0,0.0,0.0,83,0.00,,,0.00,Weather View 32 v70,2013-11-10 05:51:00,
2013-11-10 00:56:00,69.4,64.0,30.10,North,0,0.0,0.0,83,0.00,,,0.00,Weather View 32 v70,2013-11-10 05:56:00,
2013-11-10 01:01:00,69.4,64.3,30.10,North,0,0.0,0.0,84,0.00,,,0.00,Weather View 32 v70,2013-11-10 06:01:00,
2013-11-10 01:07:00,69.3,64.2,30.10,North,0,0.0,0.0,84,0.00,,,0.00,Weather View 32 v70,2013-11-10 06:07:00,
2013-11-10 01:12:00,69.3,64.2,30.10,North,0,0.0,0.0,84,0.00,,,0.00,Weather View 32 v70,2013-11-10 06:12:00,
2013-11-10 01:17:00,69.2,64.1,30.10,North,0,0.0,0.0,84,0.00,,,0.00,Weather View 32 v70,2013-11-10 06:17:00,
2013-11-10 01:22:00,69.2,64.5,30.10,North,0,0.0,0.0,85,0.00,,,0.00,Weather View 32 v70,2013-11-10 06:22:00,
2013-11-10 01:27:00,69.2,64.5,30.10,North,0,0.0,0.0,85,0.00,,,0.00,Weather View 32 v70,2013-11-10 06:27:00,
2013-11-10 01:30:00,69.2,64.5,30.09,North,0,0.0,0.0,85,0.00,,,0.00,Weather View 32 v70,2013-11-10 06:30:00,
2013-11-10 01:32:00,69.2,64.5,30.09,North,0,0.0,0.0,85,0.00,,,0.00,Weather View 32 v70,2013-11-10 06:32:00,
2013-11-10 01:37:00,69.2,64.5,30.09,North,0,0.0,0.0,85,0.00,,,0.00,Weather View 32 v70,2013-11-10 06:37:00,
2013-11-10 01:42:00,69.1,64.4,30.09,North,0,0.0,0.0,85,0.00,,,0.00,Weather View 32 v70,2013-11-10 06:42:00,
2013-11-10 01:47:00,69.1,64.4,30.09,North,0,0.0,0.0,85,0.00,,,0.00,Weather View 32 v70,2013-11-10 06:47:00,
2013-11-10 01:52:00,69.1,64.4,30.09,North,0,0.0,0.0,85,0.00,,,0.00,Weather View 32 v70,2013-11-10 06:52:00,
2013-11-10 01:57:00,69.0,64.3,30.09,North,0,0.0,0.0,85,0.00,,,0.00,Weather View 32 v70,2013-11-10 06:57:00,
2013-11-10 02:02:00,69.0,64.3,30.08,North,0,0.0,0.0,85,0.00,,,0.00,Weather View 32 v70,2013-11-10 07:02:00,
2013-11-10 02:07:00,69.0,64.6,30.08,North,0,0.0,0.0,86,0.00,,,0.00,Weather View 32 v70,2013-11-10 07:07:00,
2013-11-10 02:12:00,68.9,64.5,30.08,North,0,0.0,0.0,86,0.00,,,0.00,Weather View 32 v70,2013-11-10 07:12:00,
2013-11-10 02:17:00,68.9,64.5,30.08,North,0,0.0,0.0,86,0.00,,,0.00,Weather View 32 v70,2013-11-10 07:17:00,
2013-11-10 02:22:00,68.8,64.4,30.08,North,0,0.0,0.0,86,0.00,,,0.00,Weather View 32 v70,2013-11-10 07:22:00,
2013-11-10 02:27:00,68.9,64.5,30.08,North,0,0.0,0.0,86,0.00,,,0.00,Weather View 32 v70,2013-11-10 07:27:00,
2013-11-10 02:30:00,68.9,64.5,30.08,North,0,0.0,0.0,86,0.00,,,0.00,Weather View 32 v70,2013-11-10 07:30:00,
2013-11-10 02:32:00,68.9,64.5,30.08,North,0,0.0,0.0,86,0.00,,,0.00,Weather View 32 v70,2013-11-10 07:32:00,
2013-11-10 02:37:00,68.9,64.5,30.07,North,0,0.0,0.0,86,0.00,,,0.00,Weather View 32 v70,2013-11-10 07:37:00,
2013-11-10 02:42:00,69.0,64.6,30.07,North,0,0.0,0.0,86,0.00,,,0.00,Weather View 32 v70,2013-11-10 07:42:00,
2013-11-10 02:47:00,68.9,64.5,30.08,North,0,0.0,0.0,86,0.00,,,0.00,Weather View 32 v70,2013-11-10 07:47:00,
2013-11-10 02:52:00,68.8,64.4,30.08,North,0,0.0,0.0,86,0.00,,,0.00,Weather View 32 v70,2013-11-10 07:52:00,
2013-11-10 02:57:00,68.7,64.3,30.08,North,0,0.0,0.0,86,0.00,,,0.00,Weather View 32 v70,2013-11-10 07:57:00,
2013-11-10 03:02:00,68.7,64.3,30.08,North,0,0.0,0.0,86,0.00,,,0.00,Weather View 32 v70,2013-11-10 08:02:00,
2013-11-10 03:07:00,68.6,64.2,30.08,North,0,0.0,0.0,86,0.00,,,0.00,Weather View 32 v70,2013-11-10 08:07:00,
2013-11-10 03:12:00,68.5,64.1,30.08,North,0,0.0,0.0,86,0.00,,,0.00,Weather View 32 v70,2013-11-10 08:12:00,
2013-11-10 03:17:00,68.4,64.4,30.08,North,0,0.0,0.0,87,0.00,,,0.00,Weather View 32 v70,2013-11-10 08:17:00,
2013-11-10 03:22:00,68.4,64.4,30.08,North,0,0.0,0.0,87,0.00,,,0.00,Weather View 32 v70,2013-11-10 08:22:00,
2013-11-10 03:27:00,68.3,64.3,30.08,North,0,0.0,0.0,87,0.00,,,0.00,Weather View 32 v70,2013-11-10 08:27:00,
2013-11-10 03:30:00,68.2,64.2,30.08,North,0,0.0,0.0,87,0.00,,,0.00,Weather View 32 v70,2013-11-10 08:30:00,
2013-11-10 03:32:00,68.2,64.2,30.08,North,0,0.0,0.0,87,0.00,,,0.00,Weather View 32 v70,2013-11-10 08:32:00,
2013-11-10 03:37:00,68.1,64.4,30.08,North,0,0.0,0.0,88,0.00,,,0.00,Weather View 32 v70,2013-11-10 08:37:00,
2013-11-10 03:42:00,68.0,64.3,30.08,North,0,0.0,0.0,88,0.00,,,0.00,Weather View 32 v70,2013-11-10 08:42:00,
2013-11-10 03:47:00,67.8,64.1,30.08,North,0,0.0,0.0,88,0.00,,,0.00,Weather View 32 v70,2013-11-10 08:47:00,
2013-11-10 03:52:00,67.7,64.0,30.08,North,0,0.0,0.0,88,0.00,,,0.00,Weather View 32 v70,2013-11-10 08:52:00,
2013-11-10 03:57:00,67.6,64.2,30.08,North,0,0.0,0.0,89,0.00,,,0.00,Weather View 32 v70,2013-11-10 08:57:00,
2013-11-10 04:02:00,67.6,64.2,30.08,North,0,0.0,0.0,89,0.00,,,0.00,Weather View 32 v70,2013-11-10 09:02:00,
2013-11-10 04:07:00,67.6,64.2,30.08,North,0,0.0,0.0,89,0.00,,,0.00,Weather View 32 v70,2013-11-10 09:07:00,
2013-11-10 04:12:00,67.6,64.2,30.08,North,0,0.0,0.0,89,0.00,,,0.00,Weather View 32 v70,2013-11-10 09:12:00,
2013-11-10 04:17:00,67.6,64.2,30.08,North,0,0.0,0.0,89,0.00,,,0.00,Weather View 32 v70,2013-11-10 09:17:00,
2013-11-10 04:22:00,67.7,64.3,30.08,North,0,0.0,0.0,89,0.00,,,0.00,Weather View 32 v70,2013-11-10 09:22:00,
2013-11-10 04:27:00,67.7,64.3,30.08,North,0,0.0,0.0,89,0.00,,,0.00,Weather View 32 v70,2013-11-10 09:27:00,
2013-11-10 04:30:00,67.7,64.3,30.08,North,0,0.0,0.0,89,0.00,,,0.00,Weather View 32 v70,2013-11-10 09:30:00,
2013-11-10 04:32:00,67.7,64.3,30.08,North,0,0.0,0.0,89,0.00,,,0.00,Weather View 32 v70,2013-11-10 09:32:00,
2013-11-10 04:37:00,67.7,64.3,30.08,North,0,0.0,0.0,89,0.00,,,0.00,Weather View 32 v70,2013-11-10 09:37:00,
2013-11-10 04:42:00,67.7,64.3,30.08,North,0,0.0,0.0,89,0.00,,,0.00,Weather View 32 v70,2013-11-10 09:42:00,
2013-11-10 04:47:00,67.7,64.6,30.08,North,0,0.0,0.0,90,0.00,,,0.00,Weather View 32 v70,2013-11-10 09:47:00,
2013-11-10 04:52:00,67.7,64.3,30.08,North,0,0.0,0.0,89,0.00,,,0.00,Weather View 32 v70,2013-11-10 09:52:00,
2013-11-10 04:57:00,67.7,64.6,30.09,North,0,0.0,0.0,90,0.00,,,0.00,Weather View 32 v70,2013-11-10 09:57:00,
2013-11-10 05:02:00,67.8,64.7,30.09,North,0,0.0,0.0,90,0.00,,,0.00,Weather View 32 v70,2013-11-10 10:02:00,
2013-11-10 05:07:00,67.8,64.7,30.09,North,0,0.0,0.0,90,0.00,,,0.00,Weather View 32 v70,2013-11-10 10:07:00,
2013-11-10 05:12:00,67.7,64.6,30.09,North,0,0.0,0.0,90,0.00,,,0.00,Weather View 32 v70,2013-11-10 10:12:00,
2013-11-10 05:17:00,67.4,64.0,30.09,North,0,0.0,0.0,89,0.00,,,0.00,Weather View 32 v70,2013-11-10 10:17:00,
2013-11-10 05:22:00,67.2,64.2,30.09,North,0,0.0,0.0,90,0.00,,,0.00,Weather View 32 v70,2013-11-10 10:22:00,
2013-11-10 05:27:00,67.0,64.0,30.10,North,0,0.0,0.0,90,0.00,,,0.00,Weather View 32 v70,2013-11-10 10:27:00,
2013-11-10 05:30:00,66.8,63.8,30.10,North,0,0.0,0.0,90,0.00,,,0.00,Weather View 32 v70,2013-11-10 10:30:00,
2013-11-10 05:32:00,66.8,63.8,30.10,North,0,0.0,0.0,90,0.00,,,0.00,Weather View 32 v70,2013-11-10 10:32:00,
2013-11-10 05:36:00,66.7,63.7,30.10,North,0,0.0,0.0,90,0.00,,,0.00,Weather View 32 v70,2013-11-10 10:36:00,
2013-11-10 05:41:00,66.6,63.9,30.10,North,0,0.0,0.0,91,0.00,,,0.00,Weather View 32 v70,2013-11-10 10:41:00,
2013-11-10 05:46:00,66.5,63.8,30.10,North,0,0.0,0.0,91,0.00,,,0.00,Weather View 32 v70,2013-11-10 10:46:00,
2013-11-10 05:51:00,66.4,63.7,30.10,North,0,0.0,0.0,91,0.00,,,0.00,Weather View 32 v70,2013-11-10 10:51:00,
2013-11-10 05:56:00,66.3,63.6,30.10,North,0,0.0,0.0,91,0.00,,,0.00,Weather View 32 v70,2013-11-10 10:56:00,
2013-11-10 06:01:00,66.3,63.6,30.10,North,0,0.0,0.0,91,0.00,,,0.00,Weather View 32 v70,2013-11-10 11:01:00,
2013-11-10 06:06:00,66.2,63.5,30.10,North,0,0.0,0.0,91,0.00,,,0.00,Weather View 32 v70,2013-11-10 11:06:00,
2013-11-10 06:11:00,66.2,63.5,30.11,North,0,0.0,0.0,91,0.00,,,0.00,Weather View 32 v70,2013-11-10 11:11:00,
2013-11-10 06:16:00,66.2,63.5,30.11,North,0,0.0,0.0,91,0.00,,,0.00,Weather View 32 v70,2013-11-10 11:16:00,
2013-11-10 06:21:00,66.2,63.5,30.11,North,0,0.0,0.0,91,0.00,,,0.00,Weather View 32 v70,2013-11-10 11:21:00,
2013-11-10 06:26:00,66.2,63.5,30.11,North,0,0.0,0.0,91,0.00,,,0.00,Weather View 32 v70,2013-11-10 11:26:00,
2013-11-10 06:30:00,66.3,63.6,30.11,North,0,0.0,0.0,91,0.00,,,0.00,Weather View 32 v70,2013-11-10 11:30:00,
2013-11-10 06:31:00,66.3,63.6,30.11,North,0,0.0,0.0,91,0.00,,,0.00,Weather View 32 v70,2013-11-10 11:31:00,
2013-11-10 06:36:00,66.3,63.6,30.11,North,0,0.0,0.0,91,0.00,,,0.00,Weather View 32 v70,2013-11-10 11:36:00,
2013-11-10 06:41:00,66.5,63.8,30.11,North,0,0.0,0.0,91,0.00,,,0.00,Weather View 32 v70,2013-11-10 11:41:00,
2013-11-10 06:46:00,66.6,63.9,30.11,North,0,0.0,0.0,91,0.00,,,0.00,Weather View 32 v70,2013-11-10 11:46:00,
2013-11-10 06:51:00,66.7,64.0,30.11,North,0,0.0,0.0,91,0.00,,,0.00,Weather View 32 v70,2013-11-10 11:51:00,
2013-11-10 06:56:00,66.8,63.8,30.12,North,0,0.0,0.0,90,0.00,,,0.00,Weather View 32 v70,2013-11-10 11:56:00,
2013-11-10 07:01:00,66.8,63.8,30.11,North,0,0.0,0.0,90,0.00,,,0.00,Weather View 32 v70,2013-11-10 12:01:00,
2013-11-10 07:06:00,66.9,63.9,30.12,North,0,0.0,0.0,90,0.00,,,0.00,Weather View 32 v70,2013-11-10 12:06:00,
2013-11-10 07:11:00,67.0,64.0,30.12,North,0,0.0,0.0,90,0.00,,,0.00,Weather View 32 v70,2013-11-10 12:11:00,
2013-11-10 07:16:00,67.0,64.0,30.12,North,0,0.0,0.0,90,0.00,,,0.00,Weather View 32 v70,2013-11-10 12:16:00,
2013-11-10 07:21:00,67.1,64.1,30.12,North,0,0.0,0.0,90,0.00,,,0.00,Weather View 32 v70,2013-11-10 12:21:00,
2013-11-10 07:26:00,67.1,64.1,30.12,North,0,0.0,0.0,90,0.00,,,0.00,Weather View 32 v70,2013-11-10 12:26:00,
2013-11-10 07:30:00,67.2,64.2,30.12,North,0,0.0,0.0,90,0.00,,,0.00,Weather View 32 v70,2013-11-10 12:30:00,
2013-11-10 07:31:00,67.2,64.2,30.12,North,0,0.0,0.0,90,0.00,,,0.00,Weather View 32 v70,2013-11-10 12:31:00,
2013-11-10 07:36:00,67.3,64.3,30.12,North,0,0.0,0.0,90,0.00,,,0.00,Weather View 32 v70,2013-11-10 12:36:00,
2013-11-10 07:41:00,67.5,64.5,30.12,North,0,0.0,0.0,90,0.00,,,0.00,Weather View 32 v70,2013-11-10 12:41:00,
2013-11-10 07:46:00,67.7,64.6,30.13,North,0,0.0,0.0,90,0.00,,,0.00,Weather View 32 v70,2013-11-10 12:46:00,
2013-11-10 07:51:00,68.0,64.6,30.13,North,0,0.0,0.0,89,0.00,,,0.00,Weather View 32 v70,2013-11-10 12:51:00,
2013-11-10 07:56:00,68.4,65.0,30.13,North,0,0.0,0.0,89,0.00,,,0.00,Weather View 32 v70,2013-11-10 12:56:00,
2013-11-10 08:01:00,68.5,64.8,30.14,North,0,0.0,0.0,88,0.00,,,0.00,Weather View 32 v70,2013-11-10 13:01:00,
2013-11-10 08:06:00,68.5,64.8,30.14,North,0,0.0,0.0,88,0.00,,,0.00,Weather View 32 v70,2013-11-10 13:06:00,
2013-11-10 08:11:00,68.7,65.0,30.14,North,0,0.0,0.0,88,0.00,,,0.00,Weather View 32 v70,2013-11-10 13:11:00,
2013-11-10 08:16:00,69.0,65.3,30.13,North,0,0.0,0.0,88,0.00,,,0.00,Weather View 32 v70,2013-11-10 13:16:00,
2013-11-10 08:21:00,69.6,65.5,30.13,North,0,0.0,0.0,87,0.00,,,0.00,Weather View 32 v70,2013-11-10 13:21:00,
2013-11-10 08:26:00,70.2,65.8,30.14,North,0,0.0,0.0,86,0.00,,,0.00,Weather View 32 v70,2013-11-10 13:26:00,
2013-11-10 08:30:00,70.6,66.2,30.14,North,0,0.0,0.0,86,0.00,,,0.00,Weather View 32 v70,2013-11-10 13:30:00,
2013-11-10 08:31:00,70.8,66.4,30.14,North,0,0.0,0.0,86,0.00,,,0.00,Weather View 32 v70,2013-11-10 13:31:00,
2013-11-10 08:36:00,71.8,66.7,30.14,North,0,0.0,0.0,84,0.00,,,0.00,Weather View 32 v70,2013-11-10 13:36:00,
2013-11-10 08:41:00,72.8,67.0,30.14,North,0,0.0,0.0,82,0.00,,,0.00,Weather View 32 v70,2013-11-10 13:41:00,
2013-11-10 08:46:00,73.5,67.3,30.14,North,0,0.0,0.0,81,0.00,,,0.00,Weather View 32 v70,2013-11-10 13:46:00,
2013-11-10 08:51:00,74.3,67.3,30.14,North,0,0.0,0.0,79,0.00,,,0.00,Weather View 32 v70,2013-11-10 13:51:00,
2013-11-10 08:56:00,74.8,67.8,30.14,North,0,0.0,0.0,79,0.00,,,0.00,Weather View 32 v70,2013-11-10 13:56:00,
2013-11-10 09:02:00,74.7,67.4,30.14,North,0,0.0,0.0,78,0.00,,,0.00,Weather View 32 v70,2013-11-10 14:02:00,
2013-11-10 09:07:00,74.7,67.4,30.14,North,0,0.0,0.0,78,0.00,,,0.00,Weather View 32 v70,2013-11-10 14:07:00,
2013-11-10 09:12:00,74.8,67.5,30.14,North,0,0.0,0.0,78,0.00,,,0.00,Weather View 32 v70,2013-11-10 14:12:00,
2013-11-10 09:17:00,75.2,67.8,30.14,North,0,0.0,0.0,78,0.00,,,0.00,Weather View 32 v70,2013-11-10 14:17:00,
2013-11-10 09:22:00,75.1,67.7,30.14,North,0,0.0,0.0,78,0.00,,,0.00,Weather View 32 v70,2013-11-10 14:22:00,
2013-11-10 09:27:00,75.2,67.8,30.14,North,0,0.0,0.0,78,0.00,,,0.00,Weather View 32 v70,2013-11-10 14:27:00,
2013-11-10 09:30:00,75.1,67.7,30.15,North,0,0.0,0.0,78,0.00,,,0.00,Weather View 32 v70,2013-11-10 14:30:00,
2013-11-10 09:32:00,75.2,67.8,30.15,North,0,0.0,0.0,78,0.00,,,0.00,Weather View 32 v70,2013-11-10 14:32:00,
2013-11-10 09:37:00,75.7,68.3,30.15,North,0,0.0,0.0,78,0.00,,,0.00,Weather View 32 v70,2013-11-10 14:37:00,
2013-11-10 09:42:00,75.9,67.8,30.15,North,0,0.0,0.0,76,0.00,,,0.00,Weather View 32 v70,2013-11-10 14:42:00,
2013-11-10 09:47:00,76.2,68.0,30.14,North,0,0.0,0.0,76,0.00,,,0.00,Weather View 32 v70,2013-11-10 14:47:00,
2013-11-10 09:52:00,76.3,68.1,30.15,North,0,0.0,0.0,76,0.00,,,0.00,Weather View 32 v70,2013-11-10 14:52:00,
2013-11-10 09:57:00,76.5,68.3,30.14,North,0,0.0,0.0,76,0.00,,,0.00,Weather View 32 v70,2013-11-10 14:57:00,
2013-11-10 10:02:00,76.4,68.2,30.14,North,0,0.0,0.0,76,0.00,,,0.00,Weather View 32 v70,2013-11-10 15:02:00,
2013-11-10 10:07:00,76.2,68.0,30.15,North,0,0.0,0.0,76,0.00,,,0.00,Weather View 32 v70,2013-11-10 15:07:00,
2013-11-10 10:12:00,76.1,68.3,30.14,North,0,0.0,0.0,77,0.00,,,0.00,Weather View 32 v70,2013-11-10 15:12:00,
2013-11-10 10:17:00,76.3,68.1,30.14,North,0,0.0,0.0,76,0.00,,,0.00,Weather View 32 v70,2013-11-10 15:17:00,
2013-11-10 10:22:00,76.4,68.6,30.14,North,0,0.0,0.0,77,0.00,,,0.00,Weather View 32 v70,2013-11-10 15:22:00,
2013-11-10 10:27:00,76.5,68.3,30.14,North,0,0.0,0.0,76,0.00,,,0.00,Weather View 32 v70,2013-11-10 15:27:00,
2013-11-10 10:30:00,76.5,68.7,30.14,North,0,0.0,0.0,77,0.00,,,0.00,Weather View 32 v70,2013-11-10 15:30:00,
2013-11-10 10:32:00,76.6,68.4,30.14,North,0,0.0,0.0,76,0.00,,,0.00,Weather View 32 v70,2013-11-10 15:32:00,
2013-11-10 10:37:00,77.0,68.8,30.14,North,0,0.0,0.0,76,0.00,,,0.00,Weather View 32 v70,2013-11-10 15:37:00,
2013-11-10 10:42:00,77.1,68.5,30.14,North,0,0.0,0.0,75,0.00,,,0.00,Weather View 32 v70,2013-11-10 15:42:00,
2013-11-10 10:47:00,77.5,69.3,30.13,North,0,0.0,0.0,76,0.00,,,0.00,Weather View 32 v70,2013-11-10 15:47:00,
2013-11-10 10:52:00,78.0,69.4,30.14,North,0,0.0,0.0,75,0.00,,,0.00,Weather View 32 v70,2013-11-10 15:52:00,
2013-11-10 10:57:00,78.0,69.0,30.13,North,0,0.0,0.0,74,0.00,,,0.00,Weather View 32 v70,2013-11-10 15:57:00,
2013-11-10 11:02:00,78.0,69.0,30.13,North,0,0.0,0.0,74,0.00,,,0.00,Weather View 32 v70,2013-11-10 16:02:00,
2013-11-10 11:07:00,78.7,69.3,30.13,North,0,0.0,0.0,73,0.00,,,0.00,Weather View 32 v70,2013-11-10 16:07:00,
2013-11-10 11:12:00,79.3,69.9,30.13,North,0,0.0,0.0,73,0.00,,,0.00,Weather View 32 v70,2013-11-10 16:12:00,
2013-11-10 11:17:00,80.2,69.5,30.13,North,0,0.0,0.0,70,0.00,,,0.00,Weather View 32 v70,2013-11-10 16:17:00,
2013-11-10 11:22:00,80.1,69.4,30.12,North,0,0.0,0.0,70,0.00,,,0.00,Weather View 32 v70,2013-11-10 16:22:00,
2013-11-10 11:27:00,80.5,69.8,30.12,North,0,0.0,0.0,70,0.00,,,0.00,Weather View 32 v70,2013-11-10 16:27:00,
2013-11-10 11:30:00,80.4,69.3,30.12,North,0,0.0,0.0,69,0.00,,,0.00,Weather View 32 v70,2013-11-10 16:30:00,
2013-11-10 11:32:00,80.3,69.2,30.12,North,0,0.0,0.0,69,0.00,,,0.00,Weather View 32 v70,2013-11-10 16:32:00,
2013-11-10 11:37:00,80.4,69.3,30.12,North,0,0.0,0.0,69,0.00,,,0.00,Weather View 32 v70,2013-11-10 16:37:00,
2013-11-10 11:42:00,80.6,69.0,30.12,North,0,0.0,0.0,68,0.00,,,0.00,Weather View 32 v70,2013-11-10 16:42:00,
2013-11-10 11:47:00,80.6,69.0,30.12,North,0,0.0,0.0,68,0.00,,,0.00,Weather View 32 v70,2013-11-10 16:47:00,
2013-11-10 11:52:00,81.0,69.4,30.12,North,0,0.0,0.0,68,0.00,,,0.00,Weather View 32 v70,2013-11-10 16:52:00,
2013-11-10 11:57:00,81.2,69.2,30.11,North,0,0.0,0.0,67,0.00,,,0.00,Weather View 32 v70,2013-11-10 16:57:00,
2013-11-10 12:02:00,81.6,69.5,30.11,North,0,0.0,0.0,67,0.00,,,0.00,Weather View 32 v70,2013-11-10 17:02:00,
2013-11-10 12:07:00,81.7,68.7,30.11,North,0,0.0,0.0,65,0.00,,,0.00,Weather View 32 v70,2013-11-10 17:07:00,
2013-11-10 12:12:00,81.8,69.3,30.11,North,0,0.0,0.0,66,0.00,,,0.00,Weather View 32 v70,2013-11-10 17:12:00,
2013-11-10 12:17:00,81.8,69.3,30.10,North,0,0.0,0.0,66,0.00,,,0.00,Weather View 32 v70,2013-11-10 17:17:00,
2013-11-10 12:22:00,82.0,69.5,30.10,North,0,0.0,0.0,66,0.00,,,0.00,Weather View 32 v70,2013-11-10 17:22:00,
2013-11-10 12:27:00,82.0,68.1,30.10,North,0,0.0,0.0,63,0.00,,,0.00,Weather View 32 v70,2013-11-10 17:27:00,
2013-11-10 12:30:00,81.9,68.5,30.10,North,0,0.0,0.0,64,0.00,,,0.00,Weather View 32 v70,2013-11-10 17:30:00,
2013-11-10 12:32:00,81.9,68.5,30.10,North,0,0.0,0.0,64,0.00,,,0.00,Weather View 32 v70,2013-11-10 17:32:00,
2013-11-10 12:37:00,81.9,67.5,30.10,North,0,0.0,0.0,62,0.00,,,0.00,Weather View 32 v70,2013-11-10 17:37:00,
2013-11-10 12:42:00,81.6,67.3,30.09,North,0,0.0,0.0,62,0.00,,,0.00,Weather View 32 v70,2013-11-10 17:42:00,
2013-11-10 12:47:00,82.0,68.1,30.09,North,0,0.0,0.0,63,0.00,,,0.00,Weather View 32 v70,2013-11-10 17:47:00,
2013-11-10 12:52:00,82.8,67.9,30.09,North,0,0.0,0.0,61,0.00,,,0.00,Weather View 32 v70,2013-11-10 17:52:00,
2013-11-10 12:57:00,82.9,67.0,30.09,North,0,0.0,0.0,59,0.00,,,0.00,Weather View 32 v70,2013-11-10 17:57:00,
2013-11-10 13:02:00,82.9,67.5,30.08,North,0,0.0,0.0,60,0.00,,,0.00,Weather View 32 v70,2013-11-10 18:02:00,
2013-11-10 13:07:00,82.6,68.2,30.08,North,0,0.0,0.0,62,0.00,,,0.00,Weather View 32 v70,2013-11-10 18:07:00,
2013-11-10 13:12:00,82.9,68.0,30.08,North,0,0.0,0.0,61,0.00,,,0.00,Weather View 32 v70,2013-11-10 18:12:00,
2013-11-10 13:17:00,82.7,67.8,30.07,North,0,0.0,0.0,61,0.00,,,0.00,Weather View 32 v70,2013-11-10 18:17:00,
2013-11-10 13:22:00,82.2,68.3,30.07,North,0,0.0,0.0,63,0.00,,,0.00,Weather View 32 v70,2013-11-10 18:22:00,
2013-11-10 13:27:00,82.1,68.2,30.07,North,0,0.0,0.0,63,0.00,,,0.00,Weather View 32 v70,2013-11-10 18:27:00,
2013-11-10 13:30:00,81.9,68.0,30.07,North,0,0.0,0.0,63,0.00,,,0.00,Weather View 32 v70,2013-11-10 18:30:00,
2013-11-10 13:32:00,81.8,67.9,30.07,North,0,0.0,0.0,63,0.00,,,0.00,Weather View 32 v70,2013-11-10 18:32:00,
2013-11-10 13:37:00,81.7,67.8,30.07,North,0,0.0,0.0,63,0.00,,,0.00,Weather View 32 v70,2013-11-10 18:37:00,
2013-11-10 13:42:00,81.6,67.7,30.07,North,0,0.0,0.0,63,0.00,,,0.00,Weather View 32 v70,2013-11-10 18:42:00,
2013-11-10 13:47:00,81.5,67.6,30.06,North,0,0.0,0.0,63,0.00,,,0.00,Weather View 32 v70,2013-11-10 18:47:00,
2013-11-10 13:52:00,81.5,67.6,30.06,North,0,0.0,0.0,63,0.00,,,0.00,Weather View 32 v70,2013-11-10 18:52:00,
2013-11-10 13:58:00,82.0,68.1,30.06,North,0,0.0,0.0,63,0.00,,,0.00,Weather View 32 v70,2013-11-10 18:58:00,
2013-11-10 14:03:00,82.1,68.7,30.06,North,0,0.0,0.0,64,0.00,,,0.00,Weather View 32 v70,2013-11-10 19:03:00,
2013-11-10 14:08:00,81.9,67.5,30.06,North,0,0.0,0.0,62,0.00,,,0.00,Weather View 32 v70,2013-11-10 19:08:00,
2013-11-10 14:13:00,81.8,67.9,30.05,North,0,0.0,0.0,63,0.00,,,0.00,Weather View 32 v70,2013-11-10 19:13:00,
2013-11-10 14:18:00,81.6,67.7,30.06,North,0,0.0,0.0,63,0.00,,,0.00,Weather View 32 v70,2013-11-10 19:18:00,
2013-11-10 14:23:00,81.6,68.2,30.06,North,0,0.0,0.0,64,0.00,,,0.00,Weather View 32 v70,2013-11-10 19:23:00,
2013-11-10 14:28:00,81.9,68.5,30.05,North,0,0.0,0.0,64,0.00,,,0.00,Weather View 32 v70,2013-11-10 19:28:00,
2013-11-10 14:30:00,82.1,68.7,30.05,North,0,0.0,0.0,64,0.00,,,0.00,Weather View 32 v70,2013-11-10 19:30:00,
2013-11-10 14:33:00,82.3,68.4,30.05,North,0,0.0,0.0,63,0.00,,,0.00,Weather View 32 v70,2013-11-10 19:33:00,
2013-11-10 14:38:00,82.5,68.6,30.05,North,0,0.0,0.0,63,0.00,,,0.00,Weather View 32 v70,2013-11-10 19:38:00,
2013-11-10 14:43:00,83.0,70.0,30.05,North,0,0.0,0.0,65,0.00,,,0.00,Weather View 32 v70,2013-11-10 19:43:00,
2013-11-10 14:48:00,83.1,70.1,30.05,North,0,0.0,0.0,65,0.00,,,0.00,Weather View 32 v70,2013-11-10 19:48:00,
2013-11-10 14:53:00,83.0,69.5,30.05,North,0,0.0,0.0,64,0.00,,,0.00,Weather View 32 v70,2013-11-10 19:53:00,
2013-11-10 14:58:00,83.3,69.8,30.05,North,0,0.0,0.0,64,0.00,,,0.00,Weather View 32 v70,2013-11-10 19:58:00,
2013-11-10 15:03:00,83.6,69.6,30.05,North,0,0.0,0.0,63,0.00,,,0.00,Weather View 32 v70,2013-11-10 20:03:00,
2013-11-10 15:08:00,83.8,69.8,30.05,North,0,0.0,0.0,63,0.00,,,0.00,Weather View 32 v70,2013-11-10 20:08:00,
2013-11-10 15:13:00,84.1,69.6,30.05,North,0,0.0,0.0,62,0.00,,,0.00,Weather View 32 v70,2013-11-10 20:13:00,
2013-11-10 15:18:00,83.6,69.1,30.05,North,0,0.0,0.0,62,0.00,,,0.00,Weather View 32 v70,2013-11-10 20:18:00,
2013-11-10 15:23:00,82.5,68.6,30.05,North,0,0.0,0.0,63,0.00,,,0.00,Weather View 32 v70,2013-11-10 20:23:00,
2013-11-10 15:28:00,82.1,68.7,30.05,North,0,0.0,0.0,64,0.00,,,0.00,Weather View 32 v70,2013-11-10 20:28:00,
2013-11-10 15:30:00,82.3,69.3,30.05,North,0,0.0,0.0,65,0.00,,,0.00,Weather View 32 v70,2013-11-10 20:30:00,
2013-11-10 15:33:00,82.5,69.0,30.05,North,0,0.0,0.0,64,0.00,,,0.00,Weather View 32 v70,2013-11-10 20:33:00,
2013-11-10 15:38:00,82.6,69.1,30.05,North,0,0.0,0.0,64,0.00,,,0.00,Weather View 32 v70,2013-11-10 20:38:00,
2013-11-10 15:43:00,82.3,69.3,30.05,North,0,0.0,0.0,65,0.00,,,0.00,Weather View 32 v70,2013-11-10 20:43:00,
2013-11-10 15:48:00,82.4,68.9,30.05,North,0,0.0,0.0,64,0.00,,,0.00,Weather View 32 v70,2013-11-10 20:48:00,
2013-11-10 15:53:00,82.6,69.6,30.05,North,0,0.0,0.0,65,0.00,,,0.00,Weather View 32 v70,2013-11-10 20:53:00,
2013-11-10 15:58:00,82.8,69.8,30.05,North,0,0.0,0.0,65,0.00,,,0.00,Weather View 32 v70,2013-11-10 20:58:00,
2013-11-10 16:03:00,82.9,69.9,30.05,North,0,0.0,0.0,65,0.00,,,0.00,Weather View 32 v70,2013-11-10 21:03:00,
2013-11-10 16:08:00,82.8,69.8,30.05,North,0,0.0,0.0,65,0.00,,,0.00,Weather View 32 v70,2013-11-10 21:08:00,
2013-11-10 16:13:00,82.6,69.6,30.05,North,0,0.0,0.0,65,0.00,,,0.00,Weather View 32 v70,2013-11-10 21:13:00,
2013-11-10 16:18:00,82.2,69.7,30.06,North,0,0.0,0.0,66,0.00,,,0.00,Weather View 32 v70,2013-11-10 21:18:00,
2013-11-10 16:23:00,81.5,69.4,30.05,North,0,0.0,0.0,67,0.00,,,0.00,Weather View 32 v70,2013-11-10 21:23:00,
2013-11-10 16:28:00,81.0,69.4,30.05,North,0,0.0,0.0,68,0.00,,,0.00,Weather View 32 v70,2013-11-10 21:28:00,
2013-11-10 16:30:00,80.9,69.3,30.05,North,0,0.0,0.0,68,0.00,,,0.00,Weather View 32 v70,2013-11-10 21:30:00,
2013-11-10 16:33:00,80.6,69.0,30.05,North,0,0.0,0.0,68,0.00,,,0.00,Weather View 32 v70,2013-11-10 21:33:00,
2013-11-10 16:38:00,80.5,68.9,30.05,North,0,0.0,0.0,68,0.00,,,0.00,Weather View 32 v70,2013-11-10 21:38:00,
2013-11-10 16:43:00,80.4,68.8,30.05,North,0,0.0,0.0,68,0.00,,,0.00,Weather View 32 v70,2013-11-10 21:43:00,
2013-11-10 16:48:00,80.3,68.7,30.05,North,0,0.0,0.0,68,0.00,,,0.00,Weather View 32 v70,2013-11-10 21:48:00,
2013-11-10 16:53:00,80.0,68.4,30.05,North,0,0.0,0.0,68,0.00,,,0.00,Weather View 32 v70,2013-11-10 21:53:00,
2013-11-10 16:58:00,79.8,68.7,30.05,North,0,0.0,0.0,69,0.00,,,0.00,Weather View 32 v70,2013-11-10 21:58:00,
2013-11-10 17:03:00,79.5,68.8,30.05,North,0,0.0,0.0,70,0.00,,,0.00,Weather View 32 v70,2013-11-10 22:03:00,
2013-11-10 17:08:00,79.3,68.6,30.05,North,0,0.0,0.0,70,0.00,,,0.00,Weather View 32 v70,2013-11-10 22:08:00,
2013-11-10 17:13:00,79.2,68.9,30.05,North,0,0.0,0.0,71,0.00,,,0.00,Weather View 32 v70,2013-11-10 22:13:00,
2013-11-10 17:18:00,79.1,68.8,30.05,North,0,0.0,0.0,71,0.00,,,0.00,Weather View 32 v70,2013-11-10 22:18:00,
2013-11-10 17:23:00,78.9,68.7,30.05,North,0,0.0,0.0,71,0.00,,,0.00,Weather View 32 v70,2013-11-10 22:23:00,
2013-11-10 17:28:00,78.6,68.4,30.05,North,0,0.0,0.0,71,0.00,,,0.00,Weather View 32 v70,2013-11-10 22:28:00,
2013-11-10 17:30:00,78.5,68.3,30.05,North,0,0.0,0.0,71,0.00,,,0.00,Weather View 32 v70,2013-11-10 22:30:00,
2013-11-10 17:33:00,78.4,68.2,30.06,North,0,0.0,0.0,71,0.00,,,0.00,Weather View 32 v70,2013-11-10 22:33:00,
2013-11-10 17:38:00,78.3,68.5,30.06,North,0,0.0,0.0,72,0.00,,,0.00,Weather View 32 v70,2013-11-10 22:38:00,
2013-11-10 17:43:00,78.1,68.3,30.06,North,0,0.0,0.0,72,0.00,,,0.00,Weather View 32 v70,2013-11-10 22:43:00,
2013-11-10 17:48:00,77.8,68.0,30.06,North,0,0.0,0.0,72,0.00,,,0.00,Weather View 32 v70,2013-11-10 22:48:00,
2013-11-10 17:53:00,77.6,68.2,30.06,North,0,0.0,0.0,73,0.00,,,0.00,Weather View 32 v70,2013-11-10 22:53:00,
2013-11-10 17:58:00,77.4,68.0,30.06,North,0,0.0,0.0,73,0.00,,,0.00,Weather View 32 v70,2013-11-10 22:58:00,
2013-11-10 18:03:00,77.3,68.3,30.06,North,0,0.0,0.0,74,0.00,,,0.00,Weather View 32 v70,2013-11-10 23:03:00,
2013-11-10 18:08:00,77.1,68.1,30.06,North,0,0.0,0.0,74,0.00,,,0.00,Weather View 32 v70,2013-11-10 23:08:00,
2013-11-10 18:13:00,77.0,68.0,30.07,North,0,0.0,0.0,74,0.00,,,0.00,Weather View 32 v70,2013-11-10 23:13:00,
2013-11-10 18:18:00,76.9,67.9,30.07,North,0,0.0,0.0,74,0.00,,,0.00,Weather View 32 v70,2013-11-10 23:18:00,
2013-11-10 18:23:00,76.8,67.5,30.07,North,0,0.0,0.0,73,0.00,,,0.00,Weather View 32 v70,2013-11-10 23:23:00,
2013-11-10 18:28:00,76.7,67.8,30.07,North,0,0.0,0.0,74,0.00,,,0.00,Weather View 32 v70,2013-11-10 23:28:00,
2013-11-10 18:30:00,76.7,67.8,30.07,North,0,0.0,0.0,74,0.00,,,0.00,Weather View 32 v70,2013-11-10 23:30:00,
2013-11-10 18:33:00,76.6,67.7,30.07,North,0,0.0,0.0,74,0.00,,,0.00,Weather View 32 v70,2013-11-10 23:33:00,
2013-11-10 18:38:00,76.5,67.6,30.07,North,0,0.0,0.0,74,0.00,,,0.00,Weather View 32 v70,2013-11-10 23:38:00,
2013-11-10 18:43:00,76.3,67.4,30.07,North,0,0.0,0.0,74,0.00,,,0.00,Weather View 32 v70,2013-11-10 23:43:00,
2013-11-10 18:48:00,76.2,67.3,30.08,North,0,0.0,0.0,74,0.00,,,0.00,Weather View 32 v70,2013-11-10 23:48:00,
2013-11-10 18:53:00,76.2,67.3,30.08,North,0,0.0,0.0,74,0.00,,,0.00,Weather View 32 v70,2013-11-10 23:53:00,
2013-11-10 18:58:00,76.0,67.1,30.08,North,0,0.0,0.0,74,0.00,,,0.00,Weather View 32 v70,2013-11-10 23:58:00,
2013-11-10 19:03:00,75.8,66.9,30.08,North,0,0.0,0.0,74,0.00,,,0.00,Weather View 32 v70,2013-11-11 00:03:00,
2013-11-10 19:08:00,75.8,66.9,30.08,North,0,0.0,0.0,74,0.00,,,0.00,Weather View 32 v70,2013-11-11 00:08:00,
2013-11-10 19:13:00,75.7,67.2,30.08,North,0,0.0,0.0,75,0.00,,,0.00,Weather View 32 v70,2013-11-11 00:13:00,
2013-11-10 19:18:00,75.5,67.0,30.08,North,0,0.0,0.0,75,0.00,,,0.00,Weather View 32 v70,2013-11-11 00:18:00,
2013-11-10 19:23:00,75.4,66.9,30.08,North,0,0.0,0.0,75,0.00,,,0.00,Weather View 32 v70,2013-11-11 00:23:00,
2013-11-10 19:28:00,75.3,66.8,30.08,North,0,0.0,0.0,75,0.00,,,0.00,Weather View 32 v70,2013-11-11 00:28:00,
2013-11-10 19:30:00,75.3,66.8,30.08,North,0,0.0,0.0,75,0.00,,,0.00,Weather View 32 v70,2013-11-11 00:30:00,
2013-11-10 19:33:00,75.2,66.7,30.08,North,0,0.0,0.0,75,0.00,,,0.00,Weather View 32 v70,2013-11-11 00:33:00,
2013-11-10 19:38:00,75.1,66.6,30.08,North,0,0.0,0.0,75,0.00,,,0.00,Weather View 32 v70,2013-11-11 00:38:00,
2013-11-10 19:43:00,75.0,66.5,30.08,North,0,0.0,0.0,75,0.00,,,0.00,Weather View 32 v70,2013-11-11 00:43:00,
2013-11-10 19:48:00,74.9,66.4,30.09,North,0,0.0,0.0,75,0.00,,,0.00,Weather View 32 v70,2013-11-11 00:48:00,
2013-11-10 19:53:00,74.9,66.4,30.09,North,0,0.0,0.0,75,0.00,,,0.00,Weather View 32 v70,2013-11-11 00:53:00,
2013-11-10 19:58:00,74.8,66.3,30.09,North,0,0.0,0.0,75,0.00,,,0.00,Weather View 32 v70,2013-11-11 00:58:00,
2013-11-10 20:03:00,74.6,66.1,30.09,North,0,0.0,0.0,75,0.00,,,0.00,Weather View 32 v70,2013-11-11 01:03:00,
2013-11-10 20:08:00,74.5,66.4,30.09,North,0,0.0,0.0,76,0.00,,,0.00,Weather View 32 v70,2013-11-11 01:08:00,
2013-11-10 20:13:00,74.3,66.2,30.09,North,0,0.0,0.0,76,0.00,,,0.00,Weather View 32 v70,2013-11-11 01:13:00,
2013-11-10 20:18:00,74.2,66.1,30.09,North,0,0.0,0.0,76,0.00,,,0.00,Weather View 32 v70,2013-11-11 01:18:00,
2013-11-10 20:23:00,74.0,65.9,30.09,North,0,0.0,0.0,76,0.00,,,0.00,Weather View 32 v70,2013-11-11 01:23:00,
2013-11-10 20:28:00,73.8,66.1,30.10,North,0,0.0,0.0,77,0.00,,,0.00,Weather View 32 v70,2013-11-11 01:28:00,
2013-11-10 20:33:00,73.7,66.0,30.10,North,0,0.0,0.0,77,0.00,,,0.00,Weather View 32 v70,2013-11-11 01:33:00,
2013-11-10 20:38:00,73.7,66.0,30.10,North,0,0.0,0.0,77,0.00,,,0.00,Weather View 32 v70,2013-11-11 01:38:00,
2013-11-10 20:44:00,73.7,66.0,30.10,North,0,0.0,0.0,77,0.00,,,0.00,Weather View 32 v70,2013-11-11 01:44:00,
2013-11-10 20:49:00,73.6,65.9,30.10,North,0,0.0,0.0,77,0.00,,,0.00,Weather View 32 v70,2013-11-11 01:49:00,
2013-11-10 20:54:00,73.5,65.8,30.10,North,0,0.0,0.0,77,0.00,,,0.00,Weather View 32 v70,2013-11-11 01:54:00,
2013-11-10 20:59:00,73.5,65.8,30.10,North,0,0.0,0.0,77,0.00,,,0.00,Weather View 32 v70,2013-11-11 01:59:00,
2013-11-10 21:04:00,73.5,65.8,30.10,North,0,0.0,0.0,77,0.00,,,0.00,Weather View 32 v70,2013-11-11 02:04:00,
2013-11-10 21:09:00,73.5,65.8,30.10,North,0,0.0,0.0,77,0.00,,,0.00,Weather View 32 v70,2013-11-11 02:09:00,
2013-11-10 21:14:00,73.4,65.7,30.10,North,0,0.0,0.0,77,0.00,,,0.00,Weather View 32 v70,2013-11-11 02:14:00,
2013-11-10 21:19:00,73.4,65.7,30.10,North,0,0.0,0.0,77,0.00,,,0.00,Weather View 32 v70,2013-11-11 02:19:00,
2013-11-10 21:24:00,73.3,65.6,30.10,North,0,0.0,0.0,77,0.00,,,0.00,Weather View 32 v70,2013-11-11 02:24:00,
2013-11-10 21:29:00,73.3,66.0,30.10,North,0,0.0,0.0,78,0.00,,,0.00,Weather View 32 v70,2013-11-11 02:29:00,
2013-11-10 21:34:00,73.3,66.0,30.10,North,0,0.0,0.0,78,0.00,,,0.00,Weather View 32 v70,2013-11-11 02:34:00,
2013-11-10 21:39:00,73.2,65.9,30.11,North,0,0.0,0.0,78,0.00,,,0.00,Weather View 32 v70,2013-11-11 02:39:00,
2013-11-10 21:44:00,73.1,65.8,30.10,North,0,0.0,0.0,78,0.00,,,0.00,Weather View 32 v70,2013-11-11 02:44:00,
2013-11-10 21:49:00,73.1,65.8,30.11,North,0,0.0,0.0,78,0.00,,,0.00,Weather View 32 v70,2013-11-11 02:49:00,
2013-11-10 21:54:00,73.1,65.8,30.11,North,0,0.0,0.0,78,0.00,,,0.00,Weather View 32 v70,2013-11-11 02:54:00,
2013-11-10 21:59:00,73.0,65.7,30.11,North,0,0.0,0.0,78,0.00,,,0.00,Weather View 32 v70,2013-11-11 02:59:00,
2013-11-10 22:04:00,73.0,65.7,30.11,North,0,0.0,0.0,78,0.00,,,0.00,Weather View 32 v70,2013-11-11 03:04:00,
2013-11-10 22:09:00,73.0,65.7,30.11,North,0,0.0,0.0,78,0.00,,,0.00,Weather View 32 v70,2013-11-11 03:09:00,
2013-11-10 22:14:00,72.9,65.6,30.11,North,0,0.0,0.0,78,0.00,,,0.00,Weather View 32 v70,2013-11-11 03:14:00,
2013-11-10 22:19:00,72.9,65.6,30.11,North,0,0.0,0.0,78,0.00,,,0.00,Weather View 32 v70,2013-11-11 03:19:00,
2013-11-10 22:24:00,72.9,65.6,30.11,North,0,0.0,0.0,78,0.00,,,0.00,Weather View 32 v70,2013-11-11 03:24:00,
2013-11-10 22:29:00,72.9,66.0,30.11,North,0,0.0,0.0,79,0.00,,,0.00,Weather View 32 v70,2013-11-11 03:29:00,
2013-11-10 22:34:00,72.8,65.9,30.11,North,0,0.0,0.0,79,0.00,,,0.00,Weather View 32 v70,2013-11-11 03:34:00,
2013-11-10 22:39:00,72.8,65.9,30.11,North,0,0.0,0.0,79,0.00,,,0.00,Weather View 32 v70,2013-11-11 03:39:00,
2013-11-10 22:44:00,72.8,66.2,30.11,North,0,0.0,0.0,80,0.00,,,0.00,Weather View 32 v70,2013-11-11 03:44:00,
2013-11-10 22:49:00,72.6,66.1,30.11,North,0,0.0,0.0,80,0.00,,,0.00,Weather View 32 v70,2013-11-11 03:49:00,
2013-11-10 22:54:00,72.5,66.0,30.11,North,0,0.0,0.0,80,0.00,,,0.00,Weather View 32 v70,2013-11-11 03:54:00,
2013-11-10 22:59:00,72.4,65.9,30.11,North,0,0.0,0.0,80,0.00,,,0.00,Weather View 32 v70,2013-11-11 03:59:00,
2013-11-10 23:04:00,72.3,65.8,30.11,North,0,0.0,0.0,80,0.00,,,0.00,Weather View 32 v70,2013-11-11 04:04:00,
2013-11-10 23:09:00,72.2,66.0,30.11,North,0,0.0,0.0,81,0.00,,,0.00,Weather View 32 v70,2013-11-11 04:09:00,
2013-11-10 23:14:00,72.2,66.0,30.11,North,0,0.0,0.0,81,0.00,,,0.00,Weather View 32 v70,2013-11-11 04:14:00,
2013-11-10 23:19:00,72.1,65.9,30.11,North,0,0.0,0.0,81,0.00,,,0.00,Weather View 32 v70,2013-11-11 04:19:00,
2013-11-10 23:24:00,72.0,65.8,30.11,North,0,0.0,0.0,81,0.00,,,0.00,Weather View 32 v70,2013-11-11 04:24:00,
2013-11-10 23:29:00,71.9,65.7,30.11,North,0,0.0,0.0,81,0.00,,,0.00,Weather View 32 v70,2013-11-11 04:29:00,
2013-11-10 23:34:00,71.8,65.6,30.11,North,0,0.0,0.0,81,0.00,,,0.00,Weather View 32 v70,2013-11-11 04:34:00,
2013-11-10 23:39:00,71.7,65.5,30.11,North,0,0.0,0.0,81,0.00,,,0.00,Weather View 32 v70,2013-11-11 04:39:00,
2013-11-10 23:44:00,71.7,65.5,30.11,North,0,0.0,0.0,81,0.00,,,0.00,Weather View 32 v70,2013-11-11 04:44:00,
2013-11-10 23:49:00,71.7,65.9,30.11,North,0,0.0,0.0,82,0.00,,,0.00,Weather View 32 v70,2013-11-11 04:49:00,
2013-11-10 23:54:00,71.6,65.8,30.11,North,0,0.0,0.0,82,0.00,,,0.00,Weather View 32 v70,2013-11-11 04:54:00,
2013-11-10 23:59:00,71.5,65.7,30.11,North,0,0.0,0.0,82,0.00,,,0.00,Weather View 32 v70,2013-11-11 04:59:00,